Flag for Germany Weather past 2 weeks in Wiesbaden, Hesse, Germany

Now
61 °F

Mostly cloudy.


Feels Like: 61 °F
Forecast: 55 / 67 °F
Wind: 3 mph from North

Location: Wiesbaden Airport

Current Time: Sep 20, 2014 at 9:00:17 AM

Latest Report: Sep 20, 2014 at 7:58 AM


Visibility: N/A

Pressure: 29.96 "Hg

Humidity: 99%

Dew point: 60 °F

Location of WiesbadenLocation

Historic Weather in Wiesbaden — Graph

°F

Wiesbaden temperature yesterday

Maximum temperature yesterday: 75 °F (at 4:02 PM)
Minimum temperature yesterday: 60 °F (at 4:58 AM)
Average temperature yesterday: 67 °F

Past Weeks' High & Low Weather Summary

 TemperatureHumidityPressure
High79 °F (Sep 5, 4:58 PM)100% (Sep 5, 7:58 AM)30.20 "Hg (Sep 5, 7:58 AM)
Low52 °F (Sep 11, 2:58 AM)38% (Sep 9, 4:58 PM)29.86 "Hg (Sep 18, 2:58 AM)
Average65 °F78%30.00 "Hg
* Reported Sep 5 7:58 AM — Sep 20 7:58 AM, Wiesbaden, Weather by CustomWeather, © 2014

Note: Actual official high and low records may vary slightly from our data, if they occured in-between our weather recording intervals... More about our weather records

Advertising

Wiesbaden weather history for previous 24 hours

 ConditionsComfort  
Time TempWeatherWind HumidityBarometerVisibility
7:58 AM
Sep 20
61 °FMostly cloudy.3 mph99%29.96 "HgN/A
6:58 AM59 °FMostly cloudy.No wind99%29.96 "HgN/A
5:58 AM61 °FClear.2 mph100%29.94 "HgN/A
4:58 AM59 °FPassing clouds.2 mph100%29.94 "HgN/A
3:58 AM59 °FPassing clouds.No wind100%29.94 "HgN/A
2:58 AM59 °FPassing clouds.2 mph100%29.94 "HgN/A
1:58 AM61 °FPassing clouds.5 mph100%29.94 "HgN/A
12:58 AM61 °FClear.No wind100%29.96 "HgN/A
11:58 PM
Sep 19
63 °FClear.2 mph94%29.94 "HgN/A
10:58 PM65 °FClear.3 mph90%29.93 "HgN/A
9:58 PM67 °FPassing clouds.1 mph85%29.93 "HgN/A
8:58 PM68 °FPassing clouds.No wind83%29.93 "HgN/A
7:58 PM69 °FLight rain. Partly sunny.3 mph80%29.91 "HgN/A
6:58 PM73 °FSunny.2 mph69%29.90 "HgN/A
5:58 PM73 °FSunny.5 mph69%29.90 "HgN/A
4:58 PM74 °FBroken clouds.6 mph68%29.90 "HgN/A
4:02 PM75 °FScattered clouds.2 mph69%29.92 "HgN/A
3:58 PM73 °FBroken clouds.5 mph74%29.91 "HgN/A
2:58 PM74 °FPartly sunny.6 mph70%29.91 "HgN/A
2:01 PM72 °FScattered clouds.6 mph73%29.93 "HgN/A
1:59 PM72 °FBroken clouds.5 mph73%29.93 "HgN/A
1:02 PM70 °FBroken clouds.5 mph78%29.94 "HgN/A
11:58 AM68 °FPartly sunny.6 mph83%29.92 "HgN/A
11:03 AM68 °FDrizzle. Broken clouds.1 mph78%29.93 "HgN/A
9:58 AM64 °FOvercast.6 mph94%29.91 "HgN/A
9:04 AM63 °FScattered clouds.2 mph94%29.91 "HgN/A
9:03 AM63 °FBroken clouds.3 mph94%29.91 "HgN/A
Weather by CustomWeather, © 2014

See weather overviewHow to use our weather pages